Вернуться в каталог

FREGAT R/B

АктивенHEO
NORAD 41033·ROCKET BODY·🇷🇺 Russia

Запущен Nov 17, 2015 с Plesetsk Cosmodrome

Loading…

Ближайшие Пролёты (ближайшие 24 часа)

TLE

СвежийSource: Space-Track

Эпоха: Sep 10, 2026, 03:23 UTC

1 41033U 15066B   26253.14135527 -.00001063  00000-0 -10491-3 0  9995
2 41033  62.7870 296.7546 7395559 268.4269  14.3064  2.01986324 79630

Отслеживайте FREGAT R/B в реальном времени с AllMySat

Download on the App Store